Volver al catálogo

ATLAS 5 CENTAUR DEB

LostHEO
NORAD 46845·DEBRIS·🇺🇸 United States

Lanzado Oct 17, 2018 desde Cape Canaveral Space Force Station

Loading…

Próximos Pases (próximas 24 horas)

TLE

ObsoletoSource: Space-Track

Época: Aug 12, 2021, 04:05 UTC

1 46845U 18079DA  21224.17033296 -.00000059  00000-0  00000-0 0  9999
2 46845  11.0655 195.2150 4647669  13.2348 355.5572  1.93125363  5878

Sigue ATLAS 5 CENTAUR DEB en tiempo real con AllMySat

Download on the App Store